Weather in Bilbao

Spain     43°15′49″N   2°56′17″W
temp.,
°C
wind,
m/s
gust,
m/s
humid.,
%
clouds,
%
prec.,
mm/h
press.,
hPa
HPBL,
m
22 january, sat
sat2201:00+4ene136489 0.1 1034382
04:00+3s007423 0.0 103443
07:00+2sw11798 0.0 103436
10:00+3wsw01756 0.0 1034168
13:00+6nne12595 0.0 1033732
16:00+7n22585 0.0 1031681
19:00+3nne12805 0.0 1032217
22:00+2sw11842 0.0 103238
23 january, sun
sun2301:00+2ssw11835 0.0 103145
04:00+1s12822 0.0 102944
07:00+1s22813 0.0 102845
10:00+3sse12700 0.0 102891
13:00+9e12480 0.0 1026556
16:00+11ne12470 0.0 1024589
19:00+6s11720 0.0 102536
22:00+4s23720 0.0 102691
24 january, mon
mon2401:00+3s23750 0.0 102682
04:00+2s24770 0.0 102789
07:00+2s24790 0.0 102781
10:00+4s23720 0.0 1028112
13:00+11sse12480 0.0 1028537
16:00+12ne12480 0.0 1027613
19:00+7s01760 0.0 102926
22:00+5ssw22780 0.0 103140
25 january, tue
tue2501:00+4s22790 0.0 103255
04:00+3s22800 0.0 103355
07:00+3s23820 0.0 103357
10:00+5s23750 0.0 103497
13:00+12sse12490 0.0 1033521
16:00+13ne11490 0.0 1032600
19:00+7w01780 0.0 103325
22:00+6ssw11800 0.0 103423
26 january, wed
wed2601:00+5ssw11770 0.0 103426
04:00+4s11760 0.0 103426
07:00+3ssw11760 0.0 103420
10:00+5ssw11690 0.0 103462
13:00+10nne11540 0.0 1032430
16:00+10n21580 0.0 1030563
19:00+6nnw11880 0.0 103151
22:00+5sw11920 0.0 103231